Location: Unspecified
(0.0000°N, 0.0000°E)
Time: 09:01:04
(UTC+00:00)

Explorer 11/Cluster Stage 4 - Pass Details

Date: 20 July 2020
Orbit: 467 x 1259 km, 28.8° (Epoch: 03 August)

Event Time Altitude Azimuth Distance (km) Brightness Sun altitude
Rises 17:02:42 0° 280° (W) 3,860 11.9 14.9°
Reaches altitude 10° 17:05:34 10° 272° (W) 3,003 11.3 14.2°
Maximum altitude 17:12:28 37° 208° (SSW) 1,817 8.7 12.6°
Drops below altitude 10° 17:19:55 10° 144° (SE) 3,233 9.3 10.9°
Sets 17:23:08 0° 136° (SE) 4,187 9.7 10.1°
